[[{"header":{"parameterUnit":"m.s-1","parameterCategory":1,"la1":30.2991,"la2":30.254,"lo1":-89.0895,"lo2":-89.0444,"dy":0.0017,"dx":0.0017,"nx":28,"ny":28,"refTime":"2025-04-27T03:00:00:Z","depth":0,"parameterNumber":2,"parameterNumberName":"U-component_of_WINDS"},"data":[0,0,0,0,0,0,0,0,0,0,0,0,0,0,0,0,0,0,0,0,0,0,0,0,0,0,0,0,0,0,0,0,0,0,0,0,0,0,0,0,0,0,0,0,0,0,0,0,0,0,0,0,0,0,0,0,0,0,-1.7703,-1.7702,0,-1.7684,-1.7684,-1.7684,-1.7648,-1.7647,-1.7646,-1.7645,-1.7626,-1.7627,-1.7627,0,0,0,0,0,0,0,0,0,0,0,0,0,-1.7707,-1.7707,-1.7703,-1.7702,-1.7702,-1.7684,-1.7684,-1.7684,-1.7648,-1.7647,-1.7646,-1.7645,-1.7626,-1.7627,-1.7627,0,0,0,0,0,0,0,0,0,0,0,0,0,-1.7699,-1.7707,-1.7703,-1.7682,-1.768,-1.7684,-1.7684,-1.7684,-1.7648,-1.7647,-1.7646,-1.7645,-1.7626,-1.7627,-1.7627,-1.765,0,0,-1.7628,-1.7628,0,0,0,0,0,0,0,0,-1.7699,-1.7699,-1.7685,-1.7683,-1.7681,-1.7667,-1.7679,-1.7672,-1.7648,-1.766,-1.7645,-1.7644,-1.7641,-1.764,-1.7639,-1.7649,-1.7648,-1.7628,-1.7628,-1.7628,-1.7628,0,0,0,0,0,0,0,-1.77,-1.7699,-1.7695,-1.7685,-1.7683,-1.7674,-1.7671,-1.7677,-1.7657,-1.7659,-1.7656,-1.7655,-1.7639,-1.7639,-1.7638,-1.7648,-1.7628,-1.7628,-1.7628,-1.7628,-1.7676,-1.7677,0,0,0,0,0,0,-1.7703,-1.77,-1.7696,-1.7695,-1.7688,-1.7675,-1.7672,-1.7673,-1.7656,-1.7653,-1.7656,-1.7653,-1.7639,-1.7638,-1.7637,-1.7663,-1.7628,-1.7628,-1.7628,-1.7675,-1.7677,-1.7678,0,0,0,0,0,0,-1.7704,-1.7703,-1.7697,-1.7697,-1.7695,-1.7676,-1.7677,-1.7673,-1.7672,-1.7654,-1.765,-1.7658,-1.7638,-1.7637,-1.7647,-1.7662,-1.7628,-1.7628,-1.7674,-1.7676,-1.7677,-1.7715,0,0,0,0,0,0,-1.7704,-1.7704,-1.7712,-1.7697,-1.7695,-1.7707,-1.7678,-1.7673,-1.7672,-1.7669,-1.7655,-1.7652,-1.7637,-1.7647,-1.7647,-1.7662,-1.7629,-1.7672,-1.7675,-1.7677,-1.7712,-1.7718,-1.7722,0,0,0,0,0,-1.7704,-1.7723,-1.7712,-1.7712,-1.7705,-1.7707,-1.7706,-1.7688,-1.7674,-1.7682,-1.7671,-1.7653,-1.7661,-1.7648,-1.7648,-1.7663,-1.7671,-1.7674,-1.7677,-1.771,-1.7717,-1.7722,0,0,0,0,0,0,-1.774,-1.7721,-1.7709,-1.7723,-1.7717,-1.7701,-1.7711,-1.7696,-1.7694,-1.7691,-1.7669,-1.7666,-1.7679,-1.7672,-1.7659,-1.7685,-1.7663,-1.7666,-1.7688,-1.7695,-1.77,-1.7701,-1.7629,0,0,0,0,0,-1.7749,-1.7753,-1.7736,-1.7751,-1.7748,-1.773,-1.7731,-1.7718,-1.771,-1.7708,-1.7697,-1.7691,-1.7692,-1.7693,-1.7693,-1.7712,-1.7708,-1.7722,-1.7727,-1.7731,-1.7733,-1.7743,-1.7749,-1.7686,-1.7686,-1.7686,0,0,-1.7769,-1.7759,-1.7762,-1.7757,-1.7751,-1.7756,-1.7728,-1.7734,-1.7737,-1.7708,-1.7717,-1.771,-1.7701,-1.7716,-1.7722,-1.7711,-1.775,-1.7734,-1.7738,-1.7738,-1.7746,-1.7752,-1.7758,-1.7688,-1.7688,-1.7687,0,0,-1.7807,-1.78,-1.7811,-1.7806,-1.7797,-1.7785,-1.7788,-1.7775,-1.7769,-1.7777,-1.7756,-1.776,-1.7762,-1.7757,-1.7755,-1.7793,-1.7777,-1.7794,-1.782,-1.783,-1.7835,-1.7839,-1.7852,-1.7857,-1.7796,-1.7797,-1.7797,0,-1.7832,-1.7838,-1.7819,-1.7826,-1.7825,-1.78,-1.7811,-1.7807,-1.7799,-1.7799,-1.7786,-1.7789,-1.7782,-1.7795,-1.7805,-1.7804,-1.7807,-1.7795,-1.7835,-1.7839,-1.7843,-1.7856,-1.7861,-1.7799,-1.7798,-1.7798,-1.7798,0,-1.787,-1.7874,-1.7884,-1.7877,-1.7877,-1.7887,-1.787,-1.7872,-1.7859,-1.7849,-1.7859,-1.7849,-1.7847,-1.785,-1.7837,-1.7861,-1.7855,-1.7839,-1.7817,-1.7852,-1.7863,-1.7868,-1.7802,-1.7801,-1.78,-1.78,0,0,-1.7928,-1.7911,-1.7916,-1.7912,-1.7901,-1.7904,-1.7913,-1.7911,-1.7914,-1.791,-1.7916,-1.792,-1.7906,-1.7903,-1.789,-1.7899,-1.793,-1.7882,-1.7882,-1.7891,-1.7956,-1.7967,-1.7973,-1.7919,-1.792,-1.7921,-1.7957,0,-1.7963,-1.7977,-1.7961,-1.7978,-1.7982,-1.7959,-1.7967,-1.7961,-1.7952,-1.7954,-1.7945,-1.7947,-1.7928,-1.7927,-1.7935,-1.7924,-1.7942,-1.7922,-1.7925,-1.7926,-1.7927,-1.7979,-1.7991,-1.8025,-1.7961,-1.7962,-1.7962,0,-1.8006,-1.8004,-1.8021,-1.801,-1.8011,-1.8018,-1.8016,-1.8018,-1.8012,-1.8005,-1.8003,-1.7988,-1.7996,-1.7975,-1.7986,-1.7973,-1.7973,-1.7969,-1.797,-1.7969,-1.7946,-1.7979,-1.8036,-1.8041,-1.7969,-1.7969,-1.7968,0,-1.8047,-1.8048,-1.8059,-1.8057,-1.8044,-1.805,-1.8045,-1.8037,-1.8038,-1.8036,-1.8036,-1.8035,-1.8034,-1.8034,-1.8019,-1.8006,-1.8032,-1.801,-1.8027,-1.8027,-1.8033,-1.8032,-1.809,-1.8034,-1.8034,-1.8034,-1.8034,0,-1.8087,-1.8099,-1.8077,-1.8084,-1.8096,-1.8078,-1.8091,-1.8084,-1.8078,-1.8083,-1.8063,-1.8069,-1.8049,-1.8052,-1.8041,-1.8052,-1.8052,-1.8046,-1.8043,-1.8048,-1.8048,-1.8047,-1.8044,-1.8035,-1.8035,-1.8035,-1.8035,0,-1.8134,-1.812,-1.8131,-1.8118,-1.8115,-1.8125,-1.8114,-1.812,-1.8111,-1.8117,-1.8118,-1.8103,-1.8106,-1.8091,-1.8091,-1.8084,-1.8101,-1.8093,-1.8103,-1.81,-1.8117,-1.8116,-1.8175,-1.8182,-1.8123,-1.8124,-1.8124,0,-1.8161,-1.8169,-1.8158,-1.816,-1.8156,-1.8159,-1.816,-1.8143,-1.8144,-1.8138,-1.8145,-1.8146,-1.8146,-1.8152,-1.8141,-1.8142,-1.8134,-1.8155,-1.8134,-1.8139,-1.8134,-1.8134,-1.8134,-1.8159,-1.816,-1.816,-1.8161,0,-1.821,-1.8202,-1.8204,-1.8203,-1.8204,-1.8202,-1.8199,-1.8202,-1.8184,-1.8186,-1.8189,-1.8189,-1.819,-1.8192,-1.819,-1.8185,-1.817,-1.8168,-1.8172,-1.8176,-1.8181,-1.8179,-1.8114,-1.8166,-1.8166,-1.8165,-1.8165,-1.8165,-1.8247,-1.8254,-1.8247,-1.8249,-1.8245,-1.8243,-1.8248,-1.8239,-1.8241,-1.8241,-1.8231,-1.8236,-1.823,-1.8226,-1.8223,-1.8227,-1.8217,-1.8222,-1.8224,-1.8225,-1.8228,-1.8181,-1.8226,-1.8226,-1.8226,-1.8226,-1.8226,0,-1.8295,-1.8289,-1.8291,-1.8288,-1.829,-1.8276,-1.8273,-1.8275,-1.828,-1.8276,-1.8276,-1.828,-1.8282,-1.8272,-1.8272,-1.8278,-1.8271,-1.8278,-1.8277,-1.8277,-1.8237,-1.8233,-1.8284,-1.8284,-1.8284,-1.8284,-1.8284,-1.8284,-1.8319,-1.833,-1.8322,-1.8331,-1.8326,-1.833,-1.8329,-1.8328,-1.8324,-1.8329,-1.8331,-1.8324,-1.8318,-1.8318,-1.8319,-1.8316,-1.8317,-1.8327,-1.8322,-1.8285,-1.8279,-1.8274,-1.827,-1.8328,-1.8328,-1.8361,-1.8362,-1.8362]},{"header":{"parameterUnit":"m.s-1","parameterCategory":1,"la1":30.2991,"la2":30.254,"lo1":-89.0895,"lo2":-89.0444,"dy":0.0017,"dx":0.0017,"nx":28,"ny":28,"refTime":"2025-04-27T03:00:00:Z","depth":0,"parameterNumber":3,"parameterNumberName":"V-component_of_WINDS"},"data":[0,0,0,0,0,0,0,0,0,0,0,0,0,0,0,0,0,0,0,0,0,0,0,0,0,0,0,0,0,0,0,0,0,0,0,0,0,0,0,0,0,0,0,0,0,0,0,0,0,0,0,0,0,0,0,0,0,0,3.2291,3.2291,0,3.231,3.231,3.231,3.2316,3.2316,3.2316,3.2316,3.2333,3.2333,3.2334,0,0,0,0,0,0,0,0,0,0,0,0,0,3.226,3.226,3.2291,3.2291,3.2292,3.231,3.231,3.231,3.2316,3.2316,3.2316,3.2316,3.2332,3.2333,3.2334,0,0,0,0,0,0,0,0,0,0,0,0,0,3.2275,3.226,3.2291,3.2297,3.2297,3.231,3.231,3.231,3.2316,3.2316,3.2316,3.2316,3.2332,3.2333,3.2334,3.2341,0,0,3.2336,3.2337,0,0,0,0,0,0,0,0,3.2274,3.2276,3.2296,3.2296,3.2297,3.231,3.2305,3.232,3.2316,3.2309,3.2316,3.2316,3.2325,3.2327,3.233,3.2342,3.2343,3.2336,3.2337,3.2337,3.2337,0,0,0,0,0,0,0,3.2273,3.2275,3.2298,3.2296,3.2297,3.2298,3.23,3.2308,3.2317,3.2309,3.231,3.2312,3.2326,3.2329,3.2331,3.2343,3.2336,3.2337,3.2337,3.2338,3.2362,3.2362,0,0,0,0,0,0,3.2271,3.2275,3.2298,3.2299,3.2285,3.2299,3.2301,3.2306,3.2317,3.2319,3.2312,3.2312,3.2328,3.233,3.2331,3.2341,3.2337,3.2338,3.2338,3.2362,3.2362,3.2362,0,0,0,0,0,0,3.2271,3.2273,3.2297,3.2287,3.229,3.2299,3.2305,3.2307,3.2311,3.2319,3.2321,3.2315,3.2328,3.233,3.2339,3.2341,3.2338,3.2339,3.2361,3.2362,3.2362,3.236,0,0,0,0,0,0,3.227,3.2273,3.2276,3.2287,3.2291,3.2305,3.2305,3.2307,3.2312,3.2312,3.2322,3.2323,3.2328,3.2338,3.234,3.2342,3.2339,3.2361,3.2361,3.2362,3.2359,3.236,3.236,0,0,0,0,0,3.2269,3.2274,3.2276,3.2279,3.2295,3.2305,3.2307,3.2313,3.2312,3.2315,3.2321,3.2323,3.2341,3.2338,3.2341,3.2344,3.2361,3.2361,3.2362,3.2359,3.236,3.236,0,0,0,0,0,0,3.2262,3.2276,3.2278,3.2288,3.2295,3.2306,3.231,3.2313,3.232,3.232,3.2326,3.2328,3.2337,3.2341,3.2338,3.2352,3.2351,3.2352,3.2348,3.2349,3.2349,3.2348,3.234,0,0,0,0,0,3.2262,3.227,3.2281,3.2288,3.2292,3.23,3.2305,3.2309,3.2317,3.232,3.2326,3.2333,3.234,3.2345,3.2352,3.236,3.2362,3.2364,3.2364,3.2364,3.2365,3.237,3.237,3.2363,3.2363,3.2363,0,0,3.2262,3.227,3.2274,3.2287,3.2294,3.2301,3.2303,3.231,3.2316,3.2321,3.2329,3.2334,3.2343,3.2351,3.2355,3.2355,3.2367,3.2364,3.2365,3.2365,3.237,3.2371,3.2371,3.2363,3.2363,3.2363,0,0,3.2265,3.2272,3.2279,3.2286,3.2296,3.2301,3.2303,3.2314,3.2317,3.2327,3.233,3.2337,3.2349,3.2355,3.2359,3.2366,3.2368,3.2368,3.2369,3.2374,3.2374,3.2375,3.2377,3.2378,3.2368,3.2368,3.2368,0,3.2263,3.2275,3.2282,3.229,3.2296,3.2301,3.2308,3.2314,3.2326,3.2329,3.2329,3.2345,3.2351,3.2361,3.2363,3.2366,3.2368,3.2367,3.2374,3.2374,3.2375,3.2377,3.2378,3.2368,3.2368,3.2368,3.2368,0,3.2272,3.2281,3.2285,3.2297,3.2303,3.231,3.2318,3.2324,3.2327,3.2333,3.2342,3.235,3.2358,3.2361,3.2364,3.2372,3.2372,3.2373,3.2372,3.2376,3.2378,3.2379,3.2368,3.2368,3.2368,3.2368,0,0,3.2271,3.2288,3.229,3.2295,3.2307,3.2313,3.2321,3.2331,3.2335,3.2343,3.2349,3.236,3.2361,3.2366,3.237,3.2375,3.2379,3.2375,3.2375,3.2376,3.2388,3.2388,3.2389,3.2381,3.2381,3.2381,3.2388,0,3.2276,3.2291,3.2298,3.2309,3.2317,3.2323,3.233,3.2337,3.2343,3.235,3.2356,3.2363,3.2364,3.2367,3.2372,3.2378,3.2382,3.2378,3.2387,3.2387,3.2384,3.239,3.2389,3.2394,3.2389,3.2389,3.2389,0,3.2283,3.2292,3.2305,3.2316,3.232,3.2326,3.2336,3.2342,3.2351,3.2355,3.2361,3.2365,3.2373,3.2372,3.2383,3.238,3.2384,3.2388,3.2388,3.2389,3.2388,3.2391,3.2396,3.2397,3.239,3.239,3.239,0,3.2282,3.2297,3.2306,3.2311,3.2325,3.2329,3.2335,3.2344,3.2349,3.2357,3.2361,3.237,3.2374,3.2381,3.2387,3.2386,3.2397,3.2397,3.24,3.24,3.2402,3.2402,3.2408,3.2405,3.2405,3.2405,3.2405,0,3.2286,3.2293,3.2306,3.2312,3.232,3.2328,3.2336,3.2342,3.235,3.2357,3.2362,3.2369,3.2377,3.2384,3.2388,3.2397,3.2399,3.2402,3.2403,3.2401,3.2401,3.2404,3.2404,3.2405,3.2405,3.2405,3.2405,0,3.2285,3.2294,3.2305,3.2318,3.2321,3.2327,3.2337,3.2343,3.2349,3.2357,3.236,3.2369,3.2378,3.2385,3.2396,3.2399,3.2408,3.2409,3.2405,3.2406,3.2409,3.2408,3.2417,3.2419,3.2414,3.2414,3.2415,0,3.2288,3.2294,3.2307,3.2313,3.2319,3.2327,3.2333,3.2341,3.2347,3.2358,3.2363,3.2372,3.238,3.2393,3.2401,3.2409,3.2411,3.2413,3.2412,3.241,3.2411,3.241,3.2411,3.2413,3.2413,3.2413,3.2413,0,3.2291,3.2295,3.2304,3.2315,3.2322,3.233,3.2339,3.2343,3.2352,3.2358,3.2368,3.2374,3.2386,3.2395,3.2404,3.241,3.2413,3.2414,3.2415,3.2413,3.2411,3.2412,3.2405,3.2413,3.2413,3.2413,3.2413,3.2413,3.2292,3.2298,3.2308,3.2318,3.2326,3.2334,3.234,3.2347,3.2356,3.2366,3.2371,3.238,3.2389,3.2402,3.2408,3.2415,3.2415,3.2417,3.2418,3.2418,3.2418,3.241,3.2417,3.2417,3.2417,3.2417,3.2417,0,3.2295,3.2303,3.2312,3.2324,3.2332,3.2335,3.2345,3.2351,3.236,3.2368,3.2376,3.2387,3.2396,3.2404,3.2414,3.2418,3.242,3.242,3.242,3.2421,3.2417,3.2415,3.2418,3.2418,3.2418,3.2418,3.2418,3.2418,3.2298,3.2308,3.2314,3.2328,3.2335,3.2345,3.2351,3.2358,3.2365,3.2377,3.2385,3.2391,3.2399,3.2409,3.2417,3.242,3.2423,3.2423,3.2425,3.2421,3.2421,3.2421,3.2419,3.2423,3.2423,3.2429,3.2429,3.2429]}]]